Lovelock, NV

2:33 PM PDT on April 25, 2017 (GMT -0700)
Derby

Weather History for KLOL - April, 2013

Change the Weather History Date:

Tuesday, April 2, 2013

  Actual Average Record
Temperature  
Mean Temperature 47 °F -  
Max Temperature 66 °F 60 °F 82 °F (1961)
Min Temperature 28 °F 29 °F 12 °F (1963)
Degree Days  
Heating Degree Days 18    
Moisture  
Dew Point 29 °F    
Average Humidity 53    
Maximum Humidity 82    
Minimum Humidity 26    
Precipitation  
Precipitation 0.00 in - - ()
Sea Level Pressure  
Sea Level Pressure 30.11 in    
Wind  
Wind Speed 3 mph (West)    
Max Wind Speed 7 mph    
Max Gust Speed -    
Visibility 10 miles    
Events      
Averages and records for this station are not official NWS values.
T = Trace of Precipitation, MM = Missing Value Source: NWS Daily Summary

Daily Weather History Graph

Daily Weather History Graph

Search for Another Location

Airport or City:

Trip Planner

Search our weather history database for the weather conditions in past years. The results will help you decide how hot, cold, wet, or windy it might be!

Date:

Astronomy

Apr. 02, 2013 Rise Set
Actual Time 6:36 AM PDT 7:19 PM PDT
Civil Twilight 6:08 AM PDT 7:47 PM PDT
Nautical Twilight 5:36 AM PDT 8:19 PM PDT
Astronomical Twilight 5:02 AM PDT 8:53 PM PDT
Moon 1:29 AM PDT (4/2) 11:32 AM PDT (4/2)
Length of Visible Light 13h 38m
Length of Day
12h 43m
Waning Gibbous, 55% of the Moon is Illuminated
Apr 2
Waning Gibbous
Apr 2
Last Quarter
Apr 10
New
Apr 18
First Quarter
Apr 25
Full

Hourly Weather History & Observations

Time (PDT) Temp. Windchill Dew Point Humidity Pressure Visibility Wind Dir Wind Speed Gust Speed Precip Events Conditions
12:53 AM 37.0 °F 33.3 °F 28.9 °F 73% 30.11 in 10.0 mi Variable 4.6 mph - N/A   Clear
1:53 AM 34.0 °F - 28.0 °F 79% 30.11 in 10.0 mi Calm Calm - N/A   Clear
2:53 AM 35.1 °F - 28.9 °F 78% 30.11 in 10.0 mi Calm Calm - N/A   Clear
3:53 AM 32.0 °F 28.7 °F 27.0 °F 82% 30.12 in 10.0 mi NNE 3.5 mph - N/A   Clear
4:53 AM 28.9 °F 25.2 °F 23.0 °F 78% 30.14 in 10.0 mi West 3.5 mph - N/A   Partly Cloudy
5:53 AM 32.0 °F 27.5 °F 27.0 °F 82% 30.15 in 10.0 mi ENE 4.6 mph - N/A   Scattered Clouds
6:53 AM 30.9 °F 26.2 °F 26.1 °F 82% 30.17 in 10.0 mi NNE 4.6 mph - N/A   Clear
7:53 AM 39.0 °F - 30.0 °F 70% 30.17 in 10.0 mi Calm Calm - N/A   Clear
8:53 AM 46.0 °F - 34.0 °F 63% 30.17 in 10.0 mi Calm Calm - N/A   Mostly Cloudy
9:53 AM 51.1 °F - 35.1 °F 54% 30.16 in 10.0 mi South 5.8 mph - N/A   Clear
10:53 AM 55.0 °F - 34.0 °F 45% 30.15 in 10.0 mi Calm Calm - N/A   Clear
11:53 AM 59.0 °F - 35.1 °F 41% 30.14 in 10.0 mi Variable 4.6 mph - N/A   Clear
12:53 PM 60.1 °F - 35.1 °F 39% 30.13 in 10.0 mi Variable 3.5 mph - N/A   Clear
1:53 PM 62.1 °F - 34.0 °F 35% 30.12 in 10.0 mi WSW 5.8 mph - N/A   Clear
2:53 PM 64.0 °F - 34.0 °F 33% 30.09 in 10.0 mi SSW 4.6 mph - N/A   Scattered Clouds
3:53 PM 66.0 °F - 33.1 °F 29% 30.07 in 10.0 mi WNW 4.6 mph - N/A   Clear
4:53 PM 66.0 °F - 30.9 °F 27% 30.06 in 10.0 mi Variable 3.5 mph - N/A   Partly Cloudy
5:53 PM 66.0 °F - 30.0 °F 26% 30.05 in 10.0 mi NW 5.8 mph - N/A   Clear
6:53 PM 64.0 °F - 28.9 °F 27% 30.06 in 10.0 mi Variable 3.5 mph - N/A   Clear
7:53 PM 55.0 °F - 28.0 °F 35% 30.07 in 10.0 mi SW 3.5 mph - N/A   Clear
8:53 PM 48.0 °F - 24.1 °F 39% 30.09 in 10.0 mi SE 4.6 mph - N/A   Clear
9:53 PM 45.0 °F - 24.1 °F 44% 30.09 in 10.0 mi Calm Calm - N/A   Clear
10:53 PM 39.0 °F 34.0 °F 21.9 °F 50% 30.10 in 10.0 mi East 6.9 mph - N/A   Clear
11:53 PM 36.0 °F - 19.9 °F 52% 30.10 in 10.0 mi Calm Calm - N/A   Clear